User: anonymous   Login
Location: Oshawa
(43.9000°N, 78.8670°W)
Time: 03:46:35
(UTC-05:00)
Language:

Altair - Orbit

View from above orbital plane
View from above orbital plane
View from above satellite
View from above satellite

Ground track
Ground track

The orbit data is extracted from the following two-line orbital elements,

1 00050U 60009B   16040.94644797 -.00000127  00000-0 -39869-3 0  9991
2 00050  47.2336  14.5076 0114371 268.7435  90.0249 12.20095618476608
Epoch (UTC): 09 February 2016 22:42:53
Eccentricity: 0.0114371
inclination: 47.2336°
perigee height: 1501 km
apogee height: 1683 km
right ascension of ascending node: 14.5076°
argument of perigee: 268.7435°
revolutions per day: 12.20095618
mean anomaly at epoch: 90.0249°
orbit number at epoch: 47660

The dashed part of the orbit path shows where the satellite is in the earth's shadow,  

DLR